Location: Chochol
(49.7771°N, 14.9780°E)
Time: 03:43:10
(UTC+00:00)

Cosmos 2233 Rocket - Pass Details

Date: 09 April 2020
Orbit: 952 x 991 km, 82.9° (Epoch: 26 May)

Event Time Altitude Azimuth Distance (km) Brightness Sun altitude
Rises 23:40:02 0° 348° (NNW) 3,703 8.0 -31.6°
Reaches altitude 10° 23:42:35 10° 346° (NNW) 2,745 7.1 -31.5°
Enters shadow 23:47:58 58° 304° (NW) 1,126 4.3 -31.3°
